Stündliche Wetter Absalyamovo

Heute, 21 Juni, Montag

Zeit Temperatur Niederschläge Wind Luftdruck Luftfeuchtigkeit
00:00 +9°C° 0 mm 2 m/S 733 mmHg 59%
01:00 +9°C° 0 mm 1 m/S 734 mmHg 65%
02:00 +8°C° 0 mm 1 m/S 734 mmHg 68%
03:00 +7°C° 0 mm 1 m/S 735 mmHg 70%
04:00 +7°C° 0 mm 1 m/S 735 mmHg 72%
05:00 +9°C° 0 mm 1 m/S 735 mmHg 64%
06:00 +10°C° 0 mm 2 m/S 736 mmHg 56%
07:00 +13°C° 0 mm 2 m/S 736 mmHg 48%
08:00 +14°C° 0 mm 2 m/S 736 mmHg 43%
09:00 +16°C° 0 mm 2 m/S 736 mmHg 39%
10:00 +17°C° 0 mm 3 m/S 736 mmHg 34%
11:00 +18°C° 0 mm 3 m/S 736 mmHg 32%
12:00 +19°C° 0 mm 3 m/S 736 mmHg 30%
13:00 +21°C° 0 mm 3 m/S 736 mmHg 28%
14:00 +21°C° 0 mm 3 m/S 736 mmHg 30%
15:00 +21°C° 0 mm 3 m/S 736 mmHg 31%
16:00 +21°C° 0 mm 3 m/S 736 mmHg 33%
17:00 +20°C° 0 mm 2 m/S 736 mmHg 42%
18:00 +19°C° 0 mm 2 m/S 736 mmHg 51%
19:00 +19°C° 0 mm 1 m/S 735 mmHg 61%
20:00 +16°C° 0 mm 1 m/S 735 mmHg 65%
21:00 +14°C° 0 mm 1 m/S 735 mmHg 68%
22:00 +13°C° 0 mm 1 m/S 735 mmHg 72%
23:00 +12°C° 0 mm 1 m/S 735 mmHg 72%

Morgen, 22 Juni, Dienstag

Zeit Temperatur Niederschläge Wind Luftdruck Luftfeuchtigkeit
00:00 +12°C° 0 mm 1 m/S 735 mmHg 73%
01:00 +12°C° 0 mm 1 m/S 735 mmHg 73%
02:00 +12°C° 0 mm 1 m/S 735 mmHg 74%
03:00 +13°C° 0 mm 1 m/S 735 mmHg 74%
04:00 +13°C° 0 mm 1 m/S 735 mmHg 75%
05:00 +15°C° 0 mm 1 m/S 735 mmHg 72%
06:00 +16°C° 0 mm 1 m/S 735 mmHg 68%
07:00 +18°C° 0 mm 2 m/S 735 mmHg 65%
08:00 +20°C° 0 mm 2 m/S 735 mmHg 62%
09:00 +22°C° 0 mm 3 m/S 735 mmHg 59%
10:00 +24°C° 0 mm 3 m/S 735 mmHg 57%
11:00 +26°C° 0 mm 4 m/S 735 mmHg 54%
12:00 +27°C° 0 mm 4 m/S 734 mmHg 51%
13:00 +28°C° 0 mm 4 m/S 734 mmHg 49%
14:00 +28°C° 0 mm 4 m/S 734 mmHg 50%
15:00 +28°C° 0 mm 4 m/S 734 mmHg 51%
16:00 +28°C° 0 mm 4 m/S 733 mmHg 53%
17:00 +26°C° 0.2 mm 4 m/S 733 mmHg 62%
18:00 +25°C° 0.2 mm 4 m/S 733 mmHg 71%
19:00 +24°C° 0.2 mm 3 m/S 732 mmHg 80%
20:00 +21°C° 0.1 mm 3 m/S 732 mmHg 84%
21:00 +20°C° 0.1 mm 2 m/S 732 mmHg 89%
22:00 +19°C° 0.1 mm 2 m/S 732 mmHg 93%
23:00 +18°C° 0.3 mm 2 m/S 732 mmHg 94%

übermorgen, 23 Juni, Mittwoch

Zeit Temperatur Niederschläge Wind Luftdruck Luftfeuchtigkeit
00:00 +18°C° 0.3 mm 1 m/S 732 mmHg 96%
01:00 +18°C° 0.3 mm 1 m/S 732 mmHg 97%
02:00 +16°C° 0.2 mm 1 m/S 732 mmHg 98%
03:00 +16°C° 0.2 mm 1 m/S 733 mmHg 98%
04:00 +16°C° 0.2 mm 1 m/S 733 mmHg 98%
05:00 +16°C° 0.1 mm 1 m/S 733 mmHg 97%
06:00 +16°C° 0.1 mm 2 m/S 733 mmHg 95%
07:00 +16°C° 0.1 mm 2 m/S 734 mmHg 94%
08:00 +16°C° 0.1 mm 2 m/S 734 mmHg 90%
09:00 +16°C° 0.1 mm 2 m/S 734 mmHg 86%
10:00 +16°C° 0.1 mm 2 m/S 734 mmHg 82%
11:00 +17°C° 0.1 mm 2 m/S 734 mmHg 80%
12:00 +18°C° 0.1 mm 1 m/S 734 mmHg 78%
13:00 +18°C° 0.1 mm 1 m/S 735 mmHg 76%
14:00 +19°C° 0 mm 1 m/S 734 mmHg 67%
15:00 +21°C° 0 mm 1 m/S 734 mmHg 59%
16:00 +22°C° 0 mm 1 m/S 734 mmHg 51%
17:00 +22°C° 0 mm 1 m/S 734 mmHg 55%
18:00 +21°C° 0 mm 1 m/S 734 mmHg 59%
19:00 +20°C° 0 mm 1 m/S 734 mmHg 64%
20:00 +18°C° 0 mm 1 m/S 734 mmHg 71%
21:00 +15°C° 0 mm 1 m/S 734 mmHg 78%
22:00 +13°C° 0 mm 1 m/S 735 mmHg 85%
23:00 +12°C° 0 mm 1 m/S 735 mmHg 86%

24 Juni, Donnerstag

Zeit Temperatur Niederschläge Wind Luftdruck Luftfeuchtigkeit
00:00 +11°C° 0 mm 1 m/S 734 mmHg 87%
01:00 +11°C° 0 mm 1 m/S 734 mmHg 89%
02:00 +11°C° 0 mm 1 m/S 734 mmHg 89%
03:00 +10°C° 0 mm 1 m/S 734 mmHg 88%
04:00 +10°C° 0 mm 1 m/S 734 mmHg 88%
05:00 +12°C° 0 mm 0 m/S 734 mmHg 79%
06:00 +14°C° 0 mm 0 m/S 734 mmHg 69%
07:00 +17°C° 0 mm 0 m/S 734 mmHg 60%
08:00 +18°C° 0 mm 0 m/S 734 mmHg 52%
09:00 +20°C° 0 mm 0 m/S 734 mmHg 45%
10:00 +22°C° 0 mm 0 m/S 734 mmHg 38%
11:00 +25°C° 0 mm 1 m/S 734 mmHg 36%
12:00 +25°C° 0 mm 1 m/S 734 mmHg 33%
13:00 +26°C° 0 mm 2 m/S 733 mmHg 31%
14:00 +26°C° 0 mm 2 m/S 733 mmHg 32%
15:00 +26°C° 0 mm 2 m/S 733 mmHg 33%
16:00 +26°C° 0 mm 2 m/S 733 mmHg 34%
17:00 +25°C° 0 mm 2 m/S 733 mmHg 44%
18:00 +23°C° 0 mm 1 m/S 732 mmHg 53%
19:00 +22°C° 0 mm 1 m/S 732 mmHg 63%
20:00 +20°C° 0 mm 1 m/S 732 mmHg 65%
21:00 +19°C° 0 mm 1 m/S 731 mmHg 68%
22:00 +16°C° 0 mm 1 m/S 731 mmHg 70%
23:00 +15°C° 0 mm 1 m/S 731 mmHg 71%

25 Juni, Freitag

Zeit Temperatur Niederschläge Wind Luftdruck Luftfeuchtigkeit
00:00 +15°C° 0 mm 2 m/S 730 mmHg 73%
01:00 +14°C° 0 mm 2 m/S 730 mmHg 74%
02:00 +14°C° 0 mm 2 m/S 730 mmHg 80%
03:00 +14°C° 0 mm 2 m/S 729 mmHg 85%
04:00 +14°C° 0 mm 1 m/S 729 mmHg 91%
05:00 +17°C° 0 mm 2 m/S 729 mmHg 86%
06:00 +19°C° 0 mm 2 m/S 729 mmHg 82%
07:00 +21°C° 0 mm 3 m/S 728 mmHg 78%
08:00 +22°C° 0 mm 3 m/S 728 mmHg 78%
09:00 +22°C° 0 mm 3 m/S 728 mmHg 79%
10:00 +23°C° 0 mm 4 m/S 728 mmHg 79%
11:00 +25°C° 0.1 mm 4 m/S 728 mmHg 72%
12:00 +27°C° 0.1 mm 4 m/S 728 mmHg 65%
13:00 +28°C° 0.1 mm 4 m/S 727 mmHg 57%
14:00 +28°C° 0.1 mm 4 m/S 727 mmHg 59%
15:00 +28°C° 0.1 mm 3 m/S 727 mmHg 61%
16:00 +27°C° 0.1 mm 3 m/S 727 mmHg 63%
17:00 +26°C° 0.3 mm 2 m/S 727 mmHg 71%
18:00 +25°C° 0.3 mm 2 m/S 727 mmHg 79%
19:00 +23°C° 0.3 mm 1 m/S 726 mmHg 87%
20:00 +22°C° 0.4 mm 1 m/S 726 mmHg 89%
21:00 +21°C° 0.4 mm 1 m/S 726 mmHg 91%
22:00 +20°C° 0.4 mm 1 m/S 727 mmHg 93%
23:00 +20°C° 0 mm 1 m/S 726 mmHg 94%

26 Juni, Samstag

Zeit Temperatur Niederschläge Wind Luftdruck Luftfeuchtigkeit
00:00 +19°C° 0 mm 1 m/S 726 mmHg 95%
01:00 +19°C° 0 mm 1 m/S 726 mmHg 95%
02:00 +19°C° 0.2 mm 1 m/S 726 mmHg 96%
03:00 +18°C° 0.2 mm 1 m/S 726 mmHg 97%
04:00 +18°C° 0.2 mm 1 m/S 726 mmHg 97%
05:00 +19°C° 0.1 mm 1 m/S 727 mmHg 96%
06:00 +21°C° 0.1 mm 1 m/S 727 mmHg 94%
07:00 +22°C° 0.1 mm 1 m/S 727 mmHg 92%
08:00 +21°C° 0.5 mm 0 m/S 727 mmHg 87%
09:00 +22°C° 0.5 mm 0 m/S 727 mmHg 82%
10:00 +24°C° 0.5 mm 0 m/S 727 mmHg 77%
11:00 +26°C° 0.4 mm 1 m/S 727 mmHg 73%
12:00 +27°C° 0.4 mm 1 m/S 727 mmHg 70%
13:00 +27°C° 0.4 mm 1 m/S 727 mmHg 67%
14:00 +27°C° 0.8 mm 1 m/S 727 mmHg 67%
15:00 +27°C° 0.8 mm 1 m/S 727 mmHg 68%
16:00 +25°C° 0.8 mm 0 m/S 727 mmHg 69%
17:00 +24°C° 0.7 mm 0 m/S 727 mmHg 75%
18:00 +23°C° 0.7 mm 0 m/S 727 mmHg 82%
19:00 +21°C° 0.7 mm 0 m/S 726 mmHg 88%
20:00 +22°C° 0.1 mm 1 m/S 726 mmHg 89%
21:00 +21°C° 0.1 mm 1 m/S 726 mmHg 91%
22:00 +20°C° 0.1 mm 1 m/S 726 mmHg 92%
23:00 +20°C° 0 mm 1 m/S 726 mmHg 93%
Mehr zeigen

Wir brauchen deine Erlaubnis

Meteoprog und unser Service Anbieter werden persönliche Daten aufbewahren, so wie Cookies, Geräte Bezeichnung oder ähnliche Technologien von deinem Gerät und Prozess, so wie Persönliche Daten Inhalte und Werbungen, genauso wie social Media und den Verkehr zu analysieren.

  • Aufbewahrung und/oder Zugang zu deiner Geräte Informationen.

    Cookies, Geräte Bezeichnung oder andere Informationen, können aufbewahrt oder Zugang zu deinem Gerät erhalten, für den Grund, der oben angegeben wird.

  • Personalisierte Werbung und Inhalte, Messungen, Einblick in das Publikum und Produkt Entwicklung.

    Werbungen und Inhalte können personalisiert werden, basierend auf ein Profil. Mehr Daten können besser personalisierte Werbungen und Inhalte hinzufügen. Werbung und Inhalte können gezeigt und gemessen werden. Einblicke über das Publikum, welche die Werbung gesehen haben und den Inhalt, können abgeleitet werden. So wie Daten können genutzt werden, um es zu verbessern oder die Benutzer Erfahrung zu verbessern das System und die Software.

Wenn du “Ich stimme zu” klickst, erlaubst du uns, die Cookies zu benutzen die Geräte Bezeichnung, den Web oder ähnliche Technologien zu benutzen. Deine Settings, können in deinem Gerät bei deinem Browser geändert werden.

Für den bestimmten Zweck, berechtigten Interessen beruhen darauf, mehr als auf den Inhalt. Du kannst mehr darüber in unseren Privaten und Cookie Politik lesen.